DW9005 Weather Reports


time (UTC)temp
F
wind
direction
speed
knots
gust
knots
rain 1hr
in
rain 24hr
in
rain mn
in
humidity
%
barometer
mb
20260905093011 74 0.0 0.0 0.00 0.00 0.00 95 1013.5
20260905091524 74 0.0 0.0 0.00 0.00 0.00 95 1013.3
20260905090111 74 0.0 0.0 0.00 0.00 0.00 95 1013.4
20260905084600 74 0.0 0.0 0.00 0.00 0.00 95 1013.3
20260905083031 74 0.0 0.0 0.00 0.00 0.00 95 1013.2
20260905081530 74 0.0 0.0 0.00 0.00 0.00 94 1013.1
20260905080011 74 0.0 0.0 0.00 0.00 0.00 94 1013.0
20260905074514 74 0.0 0.0 0.00 0.00 0.00 94 1013.0
20260905073059 74 0.0 0.0 0.00 0.00 0.00 94 1012.9
20260905071551 75 0.0 0.0 0.00 0.00 0.00 94 1012.9
20260905070031 75 0.0 0.0 0.00 0.00 0.00 94 1012.8
20260905064531 75 0.0 0.0 0.00 0.00 0.00 94 1012.9
20260905063013 75 0.0 0.0 0.00 0.00 0.00 94 1012.9
20260905061513 75 0.0 0.0 0.00 0.00 0.00 94 1013.0
20260905060107 75 0.0 0.0 0.00 0.00 0.00 93 1013.0
20260905054555 75 0.0 0.0 0.00 0.00 0.00 93 1013.1
20260905053038 76 0.0 0.0 0.00 0.00 0.00 93 1013.2
20260905051540 76 0.0 0.0 0.00 0.00 0.00 93 1013.2
20260905050023 76 0.0 0.0 0.00 0.00 0.00 92 1013.3
20260905044522 77 0.0 0.0 0.00 0.00 0.00 92 1013.2
20260905043001 77 0.0 0.0 0.00 0.00 0.00 92 1013.4
20260905041607 77 0.0 0.0 0.00 0.00 0.00 91 1013.4
20260905040043 77 0.0 0.0 0.00 0.00 0.00 90 1013.4
20260905034553 78 0.0 0.0 0.00 0.00 0.00 90 1013.4
20260905033031 78 0.0 0.0 0.00 0.00 0.00 90 1013.7
20260905031525 79 0.0 0.0 0.00 0.00 0.00 89 1013.7
20260905030013 79 0.0 0.0 0.00 0.00 0.00 88 1013.8
20260905024506 80 0.0 0.0 0.00 0.00 0.00 87 1014.0
20260905023049 80 0.0 0.0 0.00 0.00 0.00 86 1014.1
20260905021552 81 0.0 0.0 0.00 0.00 0.00 85 1014.0
20260905020036 81 0.0 0.0 0.00 0.00 0.00 83 1014.0
20260905014536 82 0.0 0.0 0.00 0.00 0.00 82 1014.0
20260905013013 82 0.0 0.0 0.00 0.00 0.00 81 1013.8
20260905011511 83 0.0 0.0 0.00 0.00 0.00 79 1013.5
20260905010104 84 0.0 0.0 0.00 0.00 0.00 77 1013.3
20260905004554 85 0.0 0.0 0.00 0.00 0.00 74 1013.3
20260905003036 87 0.0 0.0 0.00 0.00 0.00 71 1013.3
20260905001548 88 0.0 0.0 0.00 0.00 0.00 67 1013.3
20260905000019 90 0.0 0.0 0.00 0.00 0.00 65 1013.2
20260904234524 91 0.0 0.0 0.00 0.00 0.00 66 1013.2
20260904233119 93 0.0 0.0 0.00 0.00 0.00 61 1013.2
20260904231607 94 0.0 0.0 0.00 0.00 0.00 58 1013.1
20260904230045 95 0.0 0.0 0.00 0.00 0.00 56 1013.1
20260904224549 95 0.0 0.0 0.00 0.00 0.00 55 1012.8
20260904223025 95 0.0 0.0 0.00 0.00 0.00 54 1012.7
20260904221524 95 0.0 0.0 0.00 0.00 0.00 56 1012.6
20260904220007 95 0.0 0.0 0.00 0.00 0.00 56 1012.6
20260904214505 94 0.0 0.0 0.00 0.00 0.00 57 1012.8
20260904213047 96 0.0 0.0 0.00 0.00 0.00 55 1012.7
20260904211549 96 0.0 0.0 0.00 0.00 0.00 53 1012.8
20260904210044 95 0.0 0.0 0.00 0.00 0.00 55 1012.8
20260904204534 96 0.0 0.0 0.00 0.00 0.00 55 1012.9
20260904203035 95 0.0 0.0 0.00 0.00 0.00 53 1013.1
20260904201528 96 0.0 0.0 0.00 0.00 0.00 56 1013.3
20260904200026 95 0.0 0.0 0.00 0.00 0.00 52 1013.6
20260904194523 95 0.0 0.0 0.00 0.00 0.00 55 1013.7
20260904193020 94 0.0 0.0 0.00 0.00 0.00 59 1014.1
20260904191518 93 0.0 0.0 0.00 0.00 0.00 59 1014.5
20260904190106 94 0.0 0.0 0.00 0.00 0.00 57 1014.6
20260904184559 94 0.0 0.0 0.00 0.00 0.00 58 1014.8
20260904183039 93 0.0 0.0 0.00 0.00 0.00 58 1014.9
20260904181537 93 0.0 0.0 0.00 0.00 0.00 62 1015.1
20260904180019 92 0.0 0.0 0.00 0.00 0.00 65 1015.5
20260904174515 91 0.0 0.0 0.00 0.00 0.00 64 1015.7
20260904173103 90 0.0 0.0 0.00 0.00 0.00 67 1015.8
20260904171557 90 0.0 0.0 0.00 0.00 0.00 67 1016.1
20260904170039 90 0.0 0.0 0.00 0.00 0.00 70 1016.2
20260904164537 90 0.0 0.0 0.00 0.00 0.00 70 1016.4
20260904163019 90 0.0 0.0 0.00 0.00 0.00 68 1016.6
20260904161515 89 0.0 0.0 0.00 0.00 0.00 70 1016.6
20260904160100 89 0.0 0.0 0.00 0.00 0.00 72 1016.7
20260904154553 88 0.0 0.0 0.00 0.00 0.00 72 1016.7
20260904153035 88 0.0 0.0 0.00 0.00 0.00 71 1016.6
20260904151539 88 0.0 0.0 0.00 0.00 0.00 72 1016.6
20260904150015 88 0.0 0.0 0.00 0.00 0.00 75 1016.4
20260904144509 86 0.0 0.0 0.00 0.00 0.00 76 1016.4
20260904143118 86 0.0 0.0 0.00 0.00 0.00 77 1016.3
20260904141549 84 0.0 0.0 0.00 0.00 0.00 81 1016.3
20260904140044 83 0.0 0.0 0.00 0.00 0.00 83 1016.3
20260904134522 0 0.0 0.0 0.00 0.00 0.00 1016.3
20260904133020 0 0.0 0.0 0.00 0.00 0.00 1016.3
20260904131602 0 0.0 0.0 0.00 0.00 0.00 1016.2
20260904130057 75 0.0 0.0 0.00 0.00 0.00 95 1016.2
20260904124536 75 0.0 0.0 0.00 0.00 0.00 95 1016.2
20260904123034 75 0.0 0.0 0.00 0.00 0.00 95 1016.0
20260904121517 74 0.0 0.0 0.00 0.00 0.00 95 1015.8
20260904120015 74 0.0 0.0 0.00 0.00 0.00 95 1015.7
20260904114557 74 0.0 0.0 0.00 0.00 0.00 95 1015.5
20260904113056 74 0.0 0.0 0.00 0.00 0.00 95 1015.4
20260904111538 74 0.0 0.0 0.00 0.00 0.00 95 1015.3
20260904110037 74 0.0 0.0 0.00 0.00 0.00 95 1015.1
20260904104518 74 0.0 0.0 0.00 0.00 0.00 95 1015.0
20260904103016 74 0.0 0.0 0.00 0.00 0.00 95 1014.9
20260904101557 74 0.0 0.0 0.00 0.00 0.00 95 1014.8
20260904100120 74 0.0 0.0 0.00 0.00 0.00 95 1014.8
20260904094538 75 0.0 0.0 0.00 0.00 0.00 95 1014.7